Regional Weather Roundup
Issued by NWS

Home | Current Version | Previous Version | Text Only | Print | Product List | Glossary On
Versions: 1 2 3 4 5 6 7 8 9 10 11 12 13 14 15 16 17 18 19 20 21 22 23 24 25 26 27
000
ASUS46 KSEW 261910
RWRWA

WASHINGTON REGIONAL WEATHER ROUNDUP
NATIONAL WEATHER SERVICE SEATTLE WA
1200 PM PDT WED APR 26 2017

NOTE:"FAIR" INDICATES FEW OR NO CLOUDS BELOW 12,000 FEET WITH NO
SIGNIFICANT WEATHER AND/OR OBSTRUCTIONS TO VISIBILITY.

WAZ507-509-555>559-262000-
SEATTLE, TACOMA, EVERETT, AND VICINITY

CITY           SKY/WX    TMP DP  RH WIND       PRES   REMARKS
EVERETT        LGT RAIN  47  46  97 NW9       29.83S FOG
BOEING FIELD   PTSUNNY   54  47  77 S9G18     29.83S
RENTON         PTSUNNY   54  43  66 S14G23    29.84R
SEATAC AIRPORT MOSUNNY   54  45  71 SW18G29   29.82F
JBLM-MCCHORD   LGT RAIN  52  48  87 W16       29.85F
PUYALLUP         N/A     52  48  87 SW6G13    29.87S
BREMERTON      NOT AVBL
JBLM-FT LEWIS  PTSUNNY   55  44  67 VRB6      29.89F
TACOMA NARROWS PTSUNNY   52  44  74 S15G24    29.85S
$$

WAZ001-503-506-510-514-515-262000-
NORTH INTERIOR

CITY           SKY/WX    TMP DP  RH WIND       PRES   REMARKS
BELLINGHAM     PTSUNNY   54  42  64 VRB7      29.79R
FRIDAY HARBOR  MOSUNNY   57  43  59 SW12G21   29.81S
EASTSOUND      MOSUNNY   55  39  54 W10       29.77S
PORT ANGELES   MOSUNNY   54  41  61 NW17G23   29.81S
EDIZ HOOK      FAIR      52  43  71 NW26      29.81F
PORT TOWNSEND  CLOUDY    52  45  76 NW13G18   29.83S
NAS WHIDBEY    PTSUNNY   54  42  64 W21G31    29.85S
ARLINGTON      CLOUDY    48  41  76 CALM      29.86R
BURLINGTON     CLOUDY    54  43  66 W10       29.82R
$$

WAZ020-022-039-040-504-511-512-262000-
SOUTHWEST INTERIOR

CITY           SKY/WX    TMP DP  RH WIND       PRES   REMARKS
SHELTON        SUNNY     54  43  66 SW17G23   29.82S
OLYMPIA        PTSUNNY   52  46  80 W12G18    29.87S
CHEHALIS       RAIN      50  46  87 VRB5      29.88S
KELSO          LGT RAIN  51  47  86 W7        29.92S
VANCOUVER      CLOUDY    51  47  86 SW5       29.92S
SCAPPOOSE, OR  LGT RAIN  51  47  86 SE7       29.91S FOG
PORTLAND, OR   LGT RAIN  50  46  86 S7        29.93R
$$

WAZ021-516-517-262000-
WASHINGTON COAST

CITY           SKY/WX    TMP DP  RH WIND       PRES   REMARKS
FORKS          MOSUNNY   52  43  71 W14G20    29.86S
HOQUIAM        MOSUNNY   53  45  74 W16       29.88S
ASTORIA, OR    CLOUDY    52  45  77 W10       29.92R
$$

WAZ019-023-024-040-567>569-262000-
CASCADE MOUNTAINS AND COLUMBIA GORGE

CITY           SKY/WX    TMP DP  RH WIND       PRES   REMARKS
STAMPEDE PASS  LGT SNOW  35  35 100 W13G23    29.75S FOG     WCI  26
TROUTDALE, OR  LGT RAIN  52  47  83 S9        29.92F
THE DALLES, OR PTSUNNY   55  44  66 NW10      29.85S
$$

WAZ026-027-041>044-520-521-262000-
EAST SLOPES

CITY           SKY/WX    TMP DP  RH WIND       PRES   REMARKS
OMAK           CLOUDY    57  37  47 S9        29.66F
WENATCHEE      CLOUDY    51  36  56 NW12      29.72R
ELLENSBURG     CLOUDY    51  38  60 NW17      29.75S
YAKIMA         PTSUNNY   58  37  45 CALM      29.76S
SUNNYSIDE ARPT   N/A     54  40  58 S5        29.78S
$$

WAZ028-034-035-262000-
COLUMBIA BASIN

CITY           SKY/WX    TMP DP  RH WIND       PRES   REMARKS
EPHRATA        CLOUDY    58  28  32 W15       29.70S
MOSES LAKE     CLOUDY    59  31  34 W17       29.72R
PASCO          LGT RAIN  53  46  77 SW16      29.80R
HERMISTON, OR  LGT RAIN  52  47  83 SW16G22   29.81R
$$

WAZ036>038-262000-
NORTHEAST WASHINGTON

CITY           SKY/WX    TMP DP  RH WIND       PRES   REMARKS
SPOKANE GEIGER CLOUDY    52  33  48 SW17      29.69F
SPOKANE FELTS  CLOUDY    54  39  57 SW14      29.70S
FAIRCHILD AFB  PTSUNNY   51  35  55 W17       29.68F
COEURDALENE,ID CLOUDY    52  41  66 SW20      29.69F
DEER PARK      PTSUNNY   52  38  58 SW12      29.69S
$$

WAZ029>033-262000-
SOUTHEAST WASHINGTON

CITY           SKY/WX    TMP DP  RH WIND       PRES   REMARKS
PULLMAN        CLOUDY    49  40  71 W12G20    29.75F
LEWISTON, ID   CLOUDY    54  40  59 W8        29.75S
WALLA WALLA    LGT RAIN  51  45  79 SW17      29.80R
PENDLETON, OR  LGT RAIN  47  44  90 SW9       29.81R
$$




USA.gov is the U.S. government's official web portal to all federal, state and local government web resources and services.